Overview Statistics Trail Chart Weather Telemetry Raw packets
 

This is the latest recevied weather packets stored in our database for station/object N9BLE. If no packets are shown the sender has not sent any weather packets the latest 10 day(s).

<< 83 84 85 86 87 88 89 >>
Time Temp. Humidity Pressure Rain* Wind** Luminosity Snow
1777432750 12.22° C 74% 1017.6 hPa 0 mm - 0 W/m² -
1777432447 12.22° C 76% 1017.7 hPa 0 mm - 0 W/m² -
1777432142 12.22° C 76% 1017.8 hPa 0 mm - 0 W/m² -
1777431836 12.78° C 77% 1018 hPa 0 mm - 0 W/m² -
1777431533 12.78° C 75% 1017.5 hPa 0 mm - 0 W/m² -
1777431230 12.78° C 73% 1017.9 hPa 0 mm - 0 W/m² -
1777430925 13.33° C 73% 1017.6 hPa 0 mm - 0 W/m² -
1777430622 13.33° C 73% 1017.6 hPa 0 mm - 0 W/m² -
1777430317 13.33° C 73% 1017.7 hPa 0 mm - 0 W/m² -
1777430017 13.33° C 71% 1017.6 hPa 0 mm - 0 W/m² -
1777429714 13.33° C 72% 1017.7 hPa 0 mm - 0 W/m² -
1777429410 13.33° C 72% 1017.4 hPa 0 mm - 0 W/m² -
1777429106 13.89° C 71% 1017.4 hPa 0 mm - 0 W/m² -
1777428803 13.89° C 70% 1017.3 hPa 0 mm - 0 W/m² -
1777428499 13.89° C 68% 1017.4 hPa 0 mm - 0 W/m² -
1777428194 13.89° C 68% 1017.2 hPa 0 mm - 0 W/m² -
1777427890 13.89° C 68% 1017 hPa 0 mm - 0 W/m² -
1777427586 13.89° C 68% 1016.9 hPa 0 mm - 0 W/m² -
1777427283 13.89° C 70% 1016.8 hPa 0 mm - 0 W/m² -
1777426981 13.89° C 72% 1017 hPa 0 mm - 0 W/m² -
1777426678 13.89° C 72% 1016.9 hPa 0 mm - 0 W/m² -
1777426374 13.33° C 72% 1016.8 hPa 0 mm - 0 W/m² -
1777426069 13.89° C 73% 1016.6 hPa 0 mm - 0 W/m² -
1777425765 13.33° C 69% 1016.4 hPa 0 mm - 0 W/m² -
1777425459 13.33° C 72% 1016.4 hPa 0 mm - 0 W/m² -

* Rain latest hour (hover to see other rain measurements)
** Current wind speed in m/s (hover to see current wind gust speed)